Location: Unspecified
(45.8189°N, 0.0000°E)
Time: 03:22:40
(UTC+00:00)

Transit 5B 4 Rocket - Visible Passes

Search period start: 04 April 2026 00:00
Search period end: 14 April 2026 00:00
Orbit: 1029 x 1070 km, 90.2° (Epoch: 29 March)

Date Brightness Start Highest point End Pass type
(mag) Time Alt. Az. Time Alt. Az. Time Alt. Az.
4 Apr 8.1 02:13:03 10° NE 02:16:46 16° ENE 02:20:28 10° ESE visible
4 Apr 5.6 03:57:08 10° N 04:03:40 89° E 04:10:11 10° S visible
5 Apr 7.0 02:58:40 10° NNE 03:04:36 37° E 03:10:32 10° SSE visible
5 Apr 6.1 04:44:37 10° N 04:50:35 41° WNW 04:56:35 10° SW visible
6 Apr 8.2 02:01:36 10° NE 02:05:00 15° ENE 02:08:24 10° ESE visible
6 Apr 5.7 03:45:27 10° N 03:51:58 84° E 03:58:30 10° S visible
7 Apr 7.1 02:47:02 10° NNE 02:52:53 34° E 02:58:43 10° SSE visible
7 Apr 6.0 04:32:52 10° N 04:38:55 43° WNW 04:45:01 10° SSW visible
8 Apr 8.2 01:50:11 10° NE 01:53:14 13° ENE 01:56:17 10° E visible
8 Apr 5.7 03:33:45 10° N 03:40:17 79° E 03:46:49 10° S visible
9 Apr 7.2 02:35:24 10° NNE 02:41:09 32° E 02:46:54 10° SE visible
9 Apr 5.9 04:21:07 10° N 04:27:16 46° W 04:33:26 10° SSW visible
10 Apr 8.2 01:38:50 10° NE 01:41:27 12° ENE 01:44:05 10° E visible
10 Apr 5.8 03:22:04 10° N 03:28:36 74° E 03:35:08 10° S visible
11 Apr 7.2 02:23:46 10° NNE 02:29:25 30° E 02:35:04 10° SE visible
11 Apr 5.9 04:09:23 10° N 04:15:36 50° W 04:21:51 10° SSW visible
12 Apr 8.2 01:27:34 10° NE 01:29:41 12° ENE 01:31:47 10° E visible
12 Apr 5.9 03:10:23 10° N 03:16:54 70° E 03:23:26 10° S visible
13 Apr 7.3 02:12:09 10° NNE 02:17:41 28° E 02:23:13 10° SE visible
13 Apr 5.8 03:57:39 10° N 04:03:56 53° W 04:10:16 10° SSW visible
